Regional Weather Roundup
Issued by NWS

Home | Current Version | Previous Version | Graphics & Text | Print | Product List | Glossary Off
Versions: 1 2 3 4 5 6 7 8 9 10 11 12 13 14 15 16 17 18 19 20 21 22 23 24 25 26 27 28 29 30 31 32 33 34 35 36 37 38 39 40 41 42 43 44 45 46 47 48 49 50

000
ASUS43 KMPX 261910
RWRMN
WEATHER ROUNDUP FOR MINNESOTA
NATIONAL WEATHER SERVICE TWIN CITIES/CHANHASSEN MN
100 PM CST MON JAN 26 2015


NOTE: "FAIR" INDICATES FEW OR NO CLOUDS BELOW 12,000 FEET WITH NO
SIGNIFICANT WEATHER AND/OR OBSTRUCTIONS TO VISIBILITY. N/A MEANS
CURRENT SKY AND/OR WEATHER CONDITIONS ARE NOT AVAILABLE.

MNZ060>063-068>070-262000-
   Twin Cities Metro

CITY           SKY/WX    TMP DP  RH WIND       PRES   REMARKS
TWIN CITIES    PTSUNNY   43  32  65 W15       29.71F
ST PAUL        CLOUDY    42  32  67 NW12      29.72F
CRYSTAL        MOSUNNY   43  33  68 W9        29.71S
BLAINE         MOSUNNY   45  34  65 W13       29.71S
LAKEVILLE      SUNNY     39  34  81 W13G18    29.72S
EDEN PRAIRIE   SUNNY     43  32  65 NW12      29.72S
SOUTH ST PAUL  CLOUDY    43  32  66 NW9       29.71F
LAKE ELMO      CLOUDY    41  32  70 NW8       29.71F
$$
MNZ001>005-007-008-013>017-022>024-027-028-262000-
   Northwest Minnesota

CITY           SKY/WX    TMP DP  RH WIND       PRES   REMARKS
BEMIDJI        CLOUDY    35  30  82 NW20      29.72R WCI  24
HALLOCK        CLOUDY    30  27  86 NW16G26   29.85R WCI  19
ROSEAU         CLOUDY    32  27  80 NW18      29.78R WCI  20
WARROAD        CLOUDY    30  27  86 NW15      29.76S WCI  19
THIEF RVR FALL CLOUDY    32  28  86 NW22      29.80R WCI  19
CROOKSTON      CLOUDY    34  28  80 N24G32    29.84R WCI  21
FOSSTON        PTSUNNY   34  28  80 NW16      29.78R WCI  23
DETROIT LAKES  CLOUDY    36  32  87 NW25      29.79R
MOORHEAD       CLOUDY    43  37  81 N18       29.84R
PARK RAPIDS    CLOUDY    38  28  67 NW24G37   29.71R
MAHNOMEN       CLOUDY    34  30  85 NW24G33   29.79R WCI  21
$$
MNZ006-009>011-018-025>026-262000-
   North Central Minnesota

CITY           SKY/WX    TMP DP  RH WIND       PRES   REMARKS
BAUDETTE       CLOUDY    30  26  85 N20G26    29.72R WCI  17
FLAG ISLAND    CLOUDY    27  25  93 N22       29.75R WCI  12
INTL FALLS     CLOUDY    30  24  78 NW12      29.68R WCI  20
WASKISH        CLOUDY    36  30  80 NW13      29.72R
BIG FORK       LGT SNOW  34  32  93 NW7       29.68R WCI  28
LONGVILLE      CLOUDY    37  30  75 W12G20    29.69R
GRAND RAPIDS   CLOUDY    36  30  80 NW15G24   29.66R
CRANE LAKE     FLURRIES  27  25  93 CALM      29.69R
ORR            CLOUDY    30  27  86 NW5       29.63R WCI  25
COOK           LGT SNOW  28  28 100 NW3       29.65R VSB 3/4
WALKER         CLOUDY    36  29  78 NW13G22   29.71R
$$
MNZ012-019>021-037-262000-
   Northeast Minnesota

CITY           SKY/WX    TMP DP  RH WIND       PRES   REMARKS
DULUTH         LGT SNOW  27  23  85 W7        29.65R FOG     WCI  19
ELY            LGT SNOW  25  21  86 CALM      29.64S
HIBBING        LGT SNOW  28  24  85 CALM      29.65R VSB 1
EVELETH        LGT SNOW  27  25  93 CALM      29.66R VSB 3/4
DULUTH HARBOR  CLOUDY    27  25  93 CALM      29.70S
TWO HARBORS    CLOUDY    27  21  80 CALM      29.65S
SILVER BAY     CLOUDY    27  23  86 CALM      29.66S
GRAND MARAIS     N/A     27  21  78 S3        29.72S
G MARAIS ARPRT FLURRIES  19  16  86 SE3       29.65S
$$
MNZ029>031-032-039>041-046>048-054>057-064-262000-
   West Central Minnesota

CITY           SKY/WX    TMP DP  RH WIND       PRES   REMARKS
FERGUS FALLS   CLOUDY    37  32  81 NW13      29.83R
WHEATON        SUNNY     41  34  75 W20G30    29.85S
MORRIS         SUNNY     43  36  75 NW24      29.79S
ALEXANDRIA     PTSUNNY   39  31  72 NW20      29.77R
ELBOW LAKE     FAIR      38  33  81 NW17      29.80R
WADENA         CLOUDY    37  30  75 NW15G29   29.74R
GLENWOOD       MOSUNNY   39  34  81 W17       29.77S
APPLETON       SUNNY     45  36  70 NW21G29   29.83R
BENSON         MOSUNNY   43  34  70 N22G29    29.80S
ORTONVILLE     SUNNY     45  34  65 NW21G28   29.84R
MADISON        SUNNY     48  37  66 NW18G24   29.84R
WILLMAR        FAIR      43  34  70 NW23      29.79S
$$
MNZ033>034-036-042>043-049>051-058-059-262000-
   Central Minnesota

CITY           SKY/WX    TMP DP  RH WIND       PRES   REMARKS
ST CLOUD       MOSUNNY   42  32  67 NW14      29.72S
SAUK CENTRE    FAIR      40  33  76 W14       29.75S
PAYNESVILLE    MOSUNNY   37  32  81 W17G24    29.75F
AITKIN         CLOUDY    41  34  75 NW8G21    29.66S
PINE RIVER     CLOUDY    39  30  70 NW9G20    29.73S
BRAINERD       CLOUDY    40  31  70 NW15G24   29.70R
STAPLES        CLOUDY    39  30  70 NW21G29   29.73R
LONG PRAIRIE   PTSUNNY   39  32  75 NW14      29.74S
LITTLE FALLS   PTSUNNY   41  32  70 NW13G22   29.72S
LITCHFIELD     PTSUNNY   41  36  81 NW15G21   29.76S
BUFFALO        SUNNY     42  32  68 W15       29.74S
MAPLE LAKE     SUNNY     43  35  74 W14G20    29.74S
$$
MNZ037-044-045-052-053-262000-
   East Central Minnesota

CITY           SKY/WX    TMP DP  RH WIND       PRES   REMARKS
PRINCETON      CLOUDY    45  34  65 W10       29.71S
MORA           CLOUDY    39  30  70 NW13      29.70S
CAMBRIDGE      CLOUDY    43  32  65 W5        29.68F
RUSH CITY      CLOUDY    38  32  79 W3        29.69F
MOOSE LAKE     CLOUDY    32  30  93 CALM      29.66S
HINCKLEY       CLOUDY    36  32  87 W3        29.68S
CLOQUET        LGT SNOW  27  27 100 CALM      29.65S
MCGREGOR       CLOUDY    36  32  87 NW8       29.67R
$$
MNZ071>073-080-081-089-090-097-098-262000-
   Southwest Minnesota

CITY           SKY/WX    TMP DP  RH WIND       PRES   REMARKS
MONTEVIDEO     MOSUNNY   45  37  76 N22G30    29.82R
GRANITE FALLS  MOSUNNY   44  36  74 NW20G26   29.83S
CANBY          SUNNY     46  35  66 NW24G33   29.86R
MARSHALL       SUNNY     46  36  66 N23G31    29.84R
REDWOOD FALLS  PTSUNNY   45  34  65 N21G26    29.80R
OLIVIA         MOSUNNY   41  34  75 NW20G25   29.79S
PIPESTONE      SUNNY     43  36  75 NW21G26   29.86S
WINDOM         SUNNY     43  37  81 W18G24    29.80S
WORTHINGTON    SUNNY     43  36  75 NW22      29.84R
JACKSON        SUNNY     45  36  70 NW15      29.80S
TRACY          SUNNY     44  37  76 NW15      29.83R
SLAYTON        SUNNY     42  35  75 W21G28    29.84R
$$
MNZ065>067-074>077-082>085-091>093-262000-
   South Central Minnesota

CITY           SKY/WX    TMP DP  RH WIND       PRES   REMARKS
MANKATO        MOSUNNY   43  34  70 NW16G26   29.76S
NEW ULM        MOSUNNY   43  36  75 NW18      29.78R
ST JAMES       MOSUNNY   46  37  71 NW21G28   29.80S
FAIRMONT       SUNNY     45  34  65 NW21      29.78S
GLENCOE        PTSUNNY   40  36  83 W14       29.74S
FARIBAULT      SUNNY     41  34  75 W13       29.74S
OWATONNA       SUNNY     39  34  81 W14G29    29.74S
WASECA         MOSUNNY   41  36  81 NW17      29.76S
ALBERT LEA     SUNNY     43  36  75 NW12G17   29.73F
$$
MNZ078>079-086>088-094>096-262000-
   Southeast Minnesota

CITY           SKY/WX    TMP DP  RH WIND       PRES   REMARKS
ROCHESTER      MOSUNNY   37  31  78 NW16      29.71S
RED WING       CLOUDY    39  32  75 NW6       29.71S
STANTON        MOSUNNY   42  34  74 W12       29.72S
DODGE CENTER   MOSUNNY   37  34  87 NW18      29.71S
WINONA         CLOUDY    30  27  86 SE6       29.74F WCI  24
AUSTIN         SUNNY     39  34  81 NW12G23   29.72S
PRESTON        CLOUDY    35  31  86 NW10      29.72S WCI  27
$$
ABBREVIATIONS USED IN REMARKS
   TC - TEMPERATURES IN CELSIUS
  WCI - WIND CHILL INDEX
   HX - HEAT INDEX
  VSB - VISIBILITY
$$


USA.gov is the U.S. government's official web portal to all federal, state and local government web resources and services.